sep=,
ESTACION,FECHA,NIVEL(m),CAUDAL RIO(m³/s),CAUDAL CANAL(m³/s),CAUDAL TOTAL(m³/s),PLUVIOMETRIA(l/m²),TEMPERATURA AIRE(ºC),CONDUCTIVIDAD(µS/cm),pH,SOLIDOS EN SUSPENSION(mg/l),TEMPERATURA AGUA(ºC),TURBIDEZ(NTU),OXIGENO(mg/l),MATERIA ORGANICA(1/m),FOSFATOS(mg/l),AMONIO(mg/l)
AFORALEKUA,DATA,MAILA(m),IBAI EMARIA(m³/s),KANAL EMARIA(m³/s),EMARI TOTALA(m³/s),PLUBIOMETRIA(l/m²),HAIZE TENPERATURA(ºC),KONDUKTIBITATEA(µS/cm),pH,SOLIDO ESEKIAK(mg/l),UR TENPERATURA(ºC),UHERTASUNA(NTU),OXIGENOA(mg/l),MATERIA ORGANIKOA(1/m),FOSFATOAK(mg/l),AMONIOA(mg/l)
AGAUNTZA,1988-10-01,0.091,0.079,-,0.079,-,-,-,-,-,-,-,-,-,-,-
AGAUNTZA,1988-10-02,0.081,0.06,-,0.06,-,-,-,-,-,-,-,-,-,-,-
AGAUNTZA,1988-10-03,0.094,0.089,-,0.089,-,-,-,-,-,-,-,-,-,-,-
AGAUNTZA,1988-10-04,0.111,0.129,-,0.129,-,-,-,-,-,-,-,-,-,-,-
AGAUNTZA,1988-10-05,0.109,0.122,-,0.122,-,-,-,-,-,-,-,-,-,-,-
AGAUNTZA,1988-10-06,0.107,0.117,-,0.117,-,-,-,-,-,-,-,-,-,-,-
AGAUNTZA,1988-10-07,0.101,0.102,-,0.102,-,-,-,-,-,-,-,-,-,-,-
AGAUNTZA,1988-10-08,0.099,0.096,-,0.096,-,-,-,-,-,-,-,-,-,-,-
AGAUNTZA,1988-10-09,0.096,0.089,-,0.089,-,-,-,-,-,-,-,-,-,-,-
AGAUNTZA,1988-10-10,0.091,0.079,-,0.079,-,-,-,-,-,-,-,-,-,-,-
AGAUNTZA,1988-10-11,0.09,0.077,-,0.077,-,-,-,-,-,-,-,-,-,-,-
AGAUNTZA,1988-10-12,0.09,0.077,-,0.077,-,-,-,-,-,-,-,-,-,-,-
AGAUNTZA,1988-10-13,0.085,0.067,-,0.067,-,-,-,-,-,-,-,-,-,-,-
AGAUNTZA,1988-10-14,0.077,0.052,-,0.052,-,-,-,-,-,-,-,-,-,-,-
AGAUNTZA,1988-10-15,0.08,0.057,-,0.057,-,-,-,-,-,-,-,-,-,-,-
AGAUNTZA,1988-10-16,0.097,0.092,-,0.092,-,-,-,-,-,-,-,-,-,-,-
AGAUNTZA,1988-10-17,0.107,0.119,-,0.119,-,-,-,-,-,-,-,-,-,-,-
AGAUNTZA,1988-10-18,0.133,0.203,-,0.203,-,-,-,-,-,-,-,-,-,-,-
AGAUNTZA,1988-10-19,0.107,0.119,-,0.119,-,-,-,-,-,-,-,-,-,-,-
AGAUNTZA,1988-10-20,0.097,0.093,-,0.093,-,-,-,-,-,-,-,-,-,-,-
AGAUNTZA,1988-10-21,0.087,0.071,-,0.071,-,-,-,-,-,-,-,-,-,-,-
AGAUNTZA,1988-10-22,0.079,0.055,-,0.055,-,-,-,-,-,-,-,-,-,-,-
AGAUNTZA,1988-10-23,0.074,0.047,-,0.047,-,-,-,-,-,-,-,-,-,-,-
AGAUNTZA,1988-10-24,0.066,0.035,-,0.035,-,-,-,-,-,-,-,-,-,-,-
AGAUNTZA,1988-10-25,0.069,0.04,-,0.04,-,-,-,-,-,-,-,-,-,-,-
AGAUNTZA,1988-10-26,0.076,0.051,-,0.051,-,-,-,-,-,-,-,-,-,-,-
AGAUNTZA,1988-10-27,0.075,0.048,-,0.048,-,-,-,-,-,-,-,-,-,-,-
AGAUNTZA,1988-10-28,0.072,0.044,-,0.044,-,-,-,-,-,-,-,-,-,-,-
AGAUNTZA,1988-10-29,0.066,0.035,-,0.035,-,-,-,-,-,-,-,-,-,-,-
AGAUNTZA,1988-10-30,0.066,0.036,-,0.036,-,-,-,-,-,-,-,-,-,-,-
AGAUNTZA,1988-10-31,0.066,0.036,-,0.036,-,-,-,-,-,-,-,-,-,-,-
AGAUNTZA,1988-11-01,0.073,0.045,-,0.045,-,-,-,-,-,-,-,-,-,-,-
AGAUNTZA,1988-11-02,0.073,0.045,-,0.045,-,-,-,-,-,-,-,-,-,-,-
AGAUNTZA,1988-11-03,0.072,0.044,-,0.044,-,-,-,-,-,-,-,-,-,-,-
AGAUNTZA,1988-11-04,0.072,0.044,-,0.044,-,-,-,-,-,-,-,-,-,-,-
AGAUNTZA,1988-11-05,0.071,0.043,-,0.043,-,-,-,-,-,-,-,-,-,-,-
AGAUNTZA,1988-11-06,0.071,0.042,-,0.042,-,-,-,-,-,-,-,-,-,-,-
AGAUNTZA,1988-11-07,0.07,0.041,-,0.041,-,-,-,-,-,-,-,-,-,-,-
AGAUNTZA,1988-11-08,0.069,0.04,-,0.04,-,-,-,-,-,-,-,-,-,-,-
AGAUNTZA,1988-11-09,0.078,0.053,-,0.053,-,-,-,-,-,-,-,-,-,-,-
AGAUNTZA,1988-11-10,0.076,0.05,-,0.05,-,-,-,-,-,-,-,-,-,-,-
AGAUNTZA,1988-11-11,0.077,0.052,-,0.052,-,-,-,-,-,-,-,-,-,-,-
AGAUNTZA,1988-11-12,0.077,0.051,-,0.051,-,-,-,-,-,-,-,-,-,-,-
AGAUNTZA,1988-11-13,0.079,0.055,-,0.055,-,-,-,-,-,-,-,-,-,-,-
AGAUNTZA,1988-11-14,0.101,0.105,-,0.105,-,-,-,-,-,-,-,-,-,-,-
AGAUNTZA,1988-11-15,0.101,0.101,-,0.101,-,-,-,-,-,-,-,-,-,-,-
AGAUNTZA,1988-11-16,0.092,0.081,-,0.081,-,-,-,-,-,-,-,-,-,-,-
AGAUNTZA,1988-11-17,0.074,0.048,-,0.048,-,-,-,-,-,-,-,-,-,-,-
AGAUNTZA,1988-11-18,0.068,0.038,-,0.038,-,-,-,-,-,-,-,-,-,-,-
AGAUNTZA,1988-11-19,0.073,0.047,-,0.047,-,-,-,-,-,-,-,-,-,-,-
AGAUNTZA,1988-11-20,0.093,0.083,-,0.083,-,-,-,-,-,-,-,-,-,-,-
AGAUNTZA,1988-11-21,0.099,0.098,-,0.098,-,-,-,-,-,-,-,-,-,-,-
AGAUNTZA,1988-11-22,0.103,0.11,-,0.11,-,-,-,-,-,-,-,-,-,-,-
AGAUNTZA,1988-11-23,0.081,0.059,-,0.059,-,-,-,-,-,-,-,-,-,-,-
AGAUNTZA,1988-11-24,0.08,0.056,-,0.056,-,-,-,-,-,-,-,-,-,-,-
AGAUNTZA,1988-11-25,0.078,0.053,-,0.053,-,-,-,-,-,-,-,-,-,-,-
AGAUNTZA,1988-11-26,0.074,0.047,-,0.047,-,-,-,-,-,-,-,-,-,-,-
AGAUNTZA,1988-11-27,0.074,0.047,-,0.047,-,-,-,-,-,-,-,-,-,-,-
AGAUNTZA,1988-11-28,0.078,0.054,-,0.054,-,-,-,-,-,-,-,-,-,-,-
AGAUNTZA,1988-11-29,0.081,0.059,-,0.059,-,-,-,-,-,-,-,-,-,-,-
AGAUNTZA,1988-11-30,0.08,0.058,-,0.058,-,-,-,-,-,-,-,-,-,-,-
AGAUNTZA,1988-12-01,0.164,0.543,-,0.543,-,-,-,-,-,-,-,-,-,-,-
AGAUNTZA,1988-12-02,0.419,3.599,-,3.599,-,-,-,-,-,-,-,-,-,-,-
AGAUNTZA,1988-12-03,0.453,4.333,-,4.333,-,-,-,-,-,-,-,-,-,-,-
AGAUNTZA,1988-12-04,0.306,1.646,-,1.646,-,-,-,-,-,-,-,-,-,-,-
AGAUNTZA,1988-12-05,0.233,0.824,-,0.824,-,-,-,-,-,-,-,-,-,-,-
AGAUNTZA,1988-12-06,0.285,1.541,-,1.541,-,-,-,-,-,-,-,-,-,-,-
AGAUNTZA,1988-12-07,0.552,6.803,-,6.803,-,-,-,-,-,-,-,-,-,-,-
AGAUNTZA,1988-12-08,0.379,2.81,-,2.81,-,-,-,-,-,-,-,-,-,-,-
AGAUNTZA,1988-12-09,0.282,1.329,-,1.329,-,-,-,-,-,-,-,-,-,-,-
AGAUNTZA,1988-12-10,0.234,0.824,-,0.824,-,-,-,-,-,-,-,-,-,-,-
AGAUNTZA,1988-12-11,0.224,0.742,-,0.742,-,-,-,-,-,-,-,-,-,-,-
AGAUNTZA,1988-12-12,0.221,0.714,-,0.714,-,-,-,-,-,-,-,-,-,-,-
AGAUNTZA,1988-12-13,0.209,0.627,-,0.627,-,-,-,-,-,-,-,-,-,-,-
AGAUNTZA,1988-12-14,0.2,0.557,-,0.557,-,-,-,-,-,-,-,-,-,-,-
AGAUNTZA,1988-12-15,0.181,0.438,-,0.438,-,-,-,-,-,-,-,-,-,-,-
AGAUNTZA,1988-12-16,0.173,0.388,-,0.388,-,-,-,-,-,-,-,-,-,-,-
AGAUNTZA,1988-12-17,0.16,0.32,-,0.32,-,-,-,-,-,-,-,-,-,-,-
AGAUNTZA,1988-12-18,0.152,0.283,-,0.283,-,-,-,-,-,-,-,-,-,-,-
AGAUNTZA,1988-12-19,0.147,0.259,-,0.259,-,-,-,-,-,-,-,-,-,-,-
AGAUNTZA,1988-12-20,0.292,2.322,-,2.322,-,-,-,-,-,-,-,-,-,-,-
AGAUNTZA,1988-12-21,0.371,2.691,-,2.691,-,-,-,-,-,-,-,-,-,-,-
AGAUNTZA,1988-12-22,0.274,1.231,-,1.231,-,-,-,-,-,-,-,-,-,-,-
AGAUNTZA,1988-12-23,0.235,0.842,-,0.842,-,-,-,-,-,-,-,-,-,-,-
AGAUNTZA,1988-12-24,0.211,0.64,-,0.64,-,-,-,-,-,-,-,-,-,-,-
AGAUNTZA,1988-12-25,0.196,0.529,-,0.529,-,-,-,-,-,-,-,-,-,-,-
AGAUNTZA,1988-12-26,0.181,0.437,-,0.437,-,-,-,-,-,-,-,-,-,-,-
AGAUNTZA,1988-12-27,0.17,0.371,-,0.371,-,-,-,-,-,-,-,-,-,-,-
AGAUNTZA,1988-12-28,0.164,0.339,-,0.339,-,-,-,-,-,-,-,-,-,-,-
AGAUNTZA,1988-12-29,0.156,0.302,-,0.302,-,-,-,-,-,-,-,-,-,-,-
AGAUNTZA,1988-12-30,0.146,0.255,-,0.255,-,-,-,-,-,-,-,-,-,-,-
AGAUNTZA,1988-12-31,0.137,0.219,-,0.219,-,-,-,-,-,-,-,-,-,-,-
AGAUNTZA,1989-01-01,0.137,0.217,-,0.217,-,-,-,-,-,-,-,-,-,-,-
AGAUNTZA,1989-01-02,0.13,0.19,-,0.19,-,-,-,-,-,-,-,-,-,-,-
AGAUNTZA,1989-01-03,0.123,0.165,-,0.165,-,-,-,-,-,-,-,-,-,-,-
AGAUNTZA,1989-01-04,0.119,0.155,-,0.155,-,-,-,-,-,-,-,-,-,-,-
AGAUNTZA,1989-01-05,0.119,0.153,-,0.153,-,-,-,-,-,-,-,-,-,-,-
AGAUNTZA,1989-01-06,0.186,0.684,-,0.684,-,-,-,-,-,-,-,-,-,-,-
AGAUNTZA,1989-01-07,0.347,2.296,-,2.296,-,-,-,-,-,-,-,-,-,-,-
AGAUNTZA,1989-01-08,0.254,1.016,-,1.016,-,-,-,-,-,-,-,-,-,-,-
AGAUNTZA,1989-01-09,0.215,0.669,-,0.669,-,-,-,-,-,-,-,-,-,-,-
AGAUNTZA,1989-01-10,0.193,0.512,-,0.512,-,-,-,-,-,-,-,-,-,-,-
AGAUNTZA,1989-01-11,0.178,0.416,-,0.416,-,-,-,-,-,-,-,-,-,-,-
AGAUNTZA,1989-01-12,0.167,0.359,-,0.359,-,-,-,-,-,-,-,-,-,-,-
AGAUNTZA,1989-01-13,0.158,0.313,-,0.313,-,-,-,-,-,-,-,-,-,-,-
AGAUNTZA,1989-01-14,0.146,0.256,-,0.256,-,-,-,-,-,-,-,-,-,-,-
AGAUNTZA,1989-01-15,0.141,0.234,-,0.234,-,-,-,-,-,-,-,-,-,-,-
AGAUNTZA,1989-01-16,0.143,0.241,-,0.241,-,-,-,-,-,-,-,-,-,-,-
AGAUNTZA,1989-01-17,0.135,0.209,-,0.209,-,-,-,-,-,-,-,-,-,-,-
AGAUNTZA,1989-01-18,0.136,0.215,-,0.215,-,-,-,-,-,-,-,-,-,-,-
AGAUNTZA,1989-01-19,0.128,0.182,-,0.182,-,-,-,-,-,-,-,-,-,-,-
AGAUNTZA,1989-01-20,0.126,0.176,-,0.176,-,-,-,-,-,-,-,-,-,-,-
AGAUNTZA,1989-01-21,0.124,0.17,-,0.17,-,-,-,-,-,-,-,-,-,-,-
AGAUNTZA,1989-01-22,0.124,0.169,-,0.169,-,-,-,-,-,-,-,-,-,-,-
AGAUNTZA,1989-01-23,0.16,0.325,-,0.325,-,-,-,-,-,-,-,-,-,-,-
AGAUNTZA,1989-01-24,0.134,0.206,-,0.206,-,-,-,-,-,-,-,-,-,-,-
AGAUNTZA,1989-01-25,0.127,0.181,-,0.181,-,-,-,-,-,-,-,-,-,-,-
AGAUNTZA,1989-01-26,0.119,0.153,-,0.153,-,-,-,-,-,-,-,-,-,-,-
AGAUNTZA,1989-01-27,0.113,0.134,-,0.134,-,-,-,-,-,-,-,-,-,-,-
AGAUNTZA,1989-01-28,0.111,0.127,-,0.127,-,-,-,-,-,-,-,-,-,-,-
AGAUNTZA,1989-01-29,0.109,0.122,-,0.122,-,-,-,-,-,-,-,-,-,-,-
AGAUNTZA,1989-01-30,0.107,0.118,-,0.118,-,-,-,-,-,-,-,-,-,-,-
AGAUNTZA,1989-01-31,0.104,0.111,-,0.111,-,-,-,-,-,-,-,-,-,-,-
AGAUNTZA,1989-02-01,0.105,0.112,-,0.112,-,-,-,-,-,-,-,-,-,-,-
AGAUNTZA,1989-02-02,0.102,0.105,-,0.105,-,-,-,-,-,-,-,-,-,-,-
AGAUNTZA,1989-02-03,0.099,0.097,-,0.097,-,-,-,-,-,-,-,-,-,-,-
AGAUNTZA,1989-02-04,0.096,0.091,-,0.091,-,-,-,-,-,-,-,-,-,-,-
AGAUNTZA,1989-02-05,0.093,0.084,-,0.084,-,-,-,-,-,-,-,-,-,-,-
AGAUNTZA,1989-02-06,0.091,0.078,-,0.078,-,-,-,-,-,-,-,-,-,-,-
AGAUNTZA,1989-02-07,0.096,0.09,-,0.09,-,-,-,-,-,-,-,-,-,-,-
AGAUNTZA,1989-02-08,0.093,0.084,-,0.084,-,-,-,-,-,-,-,-,-,-,-
AGAUNTZA,1989-02-09,0.091,0.079,-,0.079,-,-,-,-,-,-,-,-,-,-,-
AGAUNTZA,1989-02-10,0.09,0.077,-,0.077,-,-,-,-,-,-,-,-,-,-,-
AGAUNTZA,1989-02-11,0.089,0.075,-,0.075,-,-,-,-,-,-,-,-,-,-,-
AGAUNTZA,1989-02-12,0.088,0.073,-,0.073,-,-,-,-,-,-,-,-,-,-,-
AGAUNTZA,1989-02-13,0.086,0.068,-,0.068,-,-,-,-,-,-,-,-,-,-,-
AGAUNTZA,1989-02-14,0.116,0.145,-,0.145,-,-,-,-,-,-,-,-,-,-,-
AGAUNTZA,1989-02-15,0.14,0.231,-,0.231,-,-,-,-,-,-,-,-,-,-,-
AGAUNTZA,1989-02-16,0.129,0.188,-,0.188,-,-,-,-,-,-,-,-,-,-,-
AGAUNTZA,1989-02-17,0.113,0.134,-,0.134,-,-,-,-,-,-,-,-,-,-,-
AGAUNTZA,1989-02-18,0.104,0.108,-,0.108,-,-,-,-,-,-,-,-,-,-,-
AGAUNTZA,1989-02-19,0.102,0.105,-,0.105,-,-,-,-,-,-,-,-,-,-,-
AGAUNTZA,1989-02-20,0.098,0.094,-,0.094,-,-,-,-,-,-,-,-,-,-,-
AGAUNTZA,1989-02-21,0.095,0.088,-,0.088,-,-,-,-,-,-,-,-,-,-,-
AGAUNTZA,1989-02-22,0.098,0.095,-,0.095,-,-,-,-,-,-,-,-,-,-,-
AGAUNTZA,1989-02-23,0.148,0.434,-,0.434,-,-,-,-,-,-,-,-,-,-,-
AGAUNTZA,1989-02-24,0.295,1.496,-,1.496,-,-,-,-,-,-,-,-,-,-,-
AGAUNTZA,1989-02-25,0.584,9.671,-,9.671,-,-,-,-,-,-,-,-,-,-,-
AGAUNTZA,1989-02-26,0.563,7.348,-,7.348,-,-,-,-,-,-,-,-,-,-,-
AGAUNTZA,1989-02-27,0.382,2.823,-,2.823,-,-,-,-,-,-,-,-,-,-,-
AGAUNTZA,1989-02-28,0.485,5.185,-,5.185,-,-,-,-,-,-,-,-,-,-,-
AGAUNTZA,1989-03-01,0.529,6.11,-,6.11,-,-,-,-,-,-,-,-,-,-,-
AGAUNTZA,1989-03-02,0.408,3.349,-,3.349,-,-,-,-,-,-,-,-,-,-,-
AGAUNTZA,1989-03-03,0.336,2.071,-,2.071,-,-,-,-,-,-,-,-,-,-,-
AGAUNTZA,1989-03-04,0.325,1.909,-,1.909,-,-,-,-,-,-,-,-,-,-,-
AGAUNTZA,1989-03-05,0.307,1.644,-,1.644,-,-,-,-,-,-,-,-,-,-,-
AGAUNTZA,1989-03-06,0.264,1.125,-,1.125,-,-,-,-,-,-,-,-,-,-,-
AGAUNTZA,1989-03-07,0.241,0.886,-,0.886,-,-,-,-,-,-,-,-,-,-,-
AGAUNTZA,1989-03-08,0.255,1.023,-,1.023,-,-,-,-,-,-,-,-,-,-,-
AGAUNTZA,1989-03-09,0.245,0.932,-,0.932,-,-,-,-,-,-,-,-,-,-,-
AGAUNTZA,1989-03-10,0.228,0.773,-,0.773,-,-,-,-,-,-,-,-,-,-,-
AGAUNTZA,1989-03-11,0.211,0.636,-,0.636,-,-,-,-,-,-,-,-,-,-,-
AGAUNTZA,1989-03-12,0.199,0.552,-,0.552,-,-,-,-,-,-,-,-,-,-,-
AGAUNTZA,1989-03-13,0.225,0.824,-,0.824,-,-,-,-,-,-,-,-,-,-,-
AGAUNTZA,1989-03-14,0.274,1.242,-,1.242,-,-,-,-,-,-,-,-,-,-,-
AGAUNTZA,1989-03-15,0.235,0.84,-,0.84,-,-,-,-,-,-,-,-,-,-,-
AGAUNTZA,1989-03-16,0.212,0.646,-,0.646,-,-,-,-,-,-,-,-,-,-,-
AGAUNTZA,1989-03-17,0.209,0.63,-,0.63,-,-,-,-,-,-,-,-,-,-,-
AGAUNTZA,1989-03-18,0.339,2.11,-,2.11,-,-,-,-,-,-,-,-,-,-,-
AGAUNTZA,1989-03-19,0.301,1.566,-,1.566,-,-,-,-,-,-,-,-,-,-,-
AGAUNTZA,1989-03-20,0.257,1.041,-,1.041,-,-,-,-,-,-,-,-,-,-,-
AGAUNTZA,1989-03-21,0.293,1.517,-,1.517,-,-,-,-,-,-,-,-,-,-,-
AGAUNTZA,1989-03-22,0.368,2.592,-,2.592,-,-,-,-,-,-,-,-,-,-,-
AGAUNTZA,1989-03-23,0.288,1.405,-,1.405,-,-,-,-,-,-,-,-,-,-,-
AGAUNTZA,1989-03-24,0.253,1.004,-,1.004,-,-,-,-,-,-,-,-,-,-,-
AGAUNTZA,1989-03-25,0.226,0.762,-,0.762,-,-,-,-,-,-,-,-,-,-,-
AGAUNTZA,1989-03-26,0.207,0.612,-,0.612,-,-,-,-,-,-,-,-,-,-,-
AGAUNTZA,1989-03-27,0.192,0.503,-,0.503,-,-,-,-,-,-,-,-,-,-,-
AGAUNTZA,1989-03-28,0.189,0.485,-,0.485,-,-,-,-,-,-,-,-,-,-,-
AGAUNTZA,1989-03-29,0.183,0.447,-,0.447,-,-,-,-,-,-,-,-,-,-,-
AGAUNTZA,1989-03-30,0.174,0.393,-,0.393,-,-,-,-,-,-,-,-,-,-,-
AGAUNTZA,1989-03-31,0.169,0.367,-,0.367,-,-,-,-,-,-,-,-,-,-,-
AGAUNTZA,1989-04-01,0.161,0.326,-,0.326,-,-,-,-,-,-,-,-,-,-,-
AGAUNTZA,1989-04-02,0.175,0.414,-,0.414,-,-,-,-,-,-,-,-,-,-,-
AGAUNTZA,1989-04-03,0.256,1.197,-,1.197,-,-,-,-,-,-,-,-,-,-,-
AGAUNTZA,1989-04-04,0.749,12.712,-,12.712,-,-,-,-,-,-,-,-,-,-,-
AGAUNTZA,1989-04-05,0.537,6.388,-,6.388,-,-,-,-,-,-,-,-,-,-,-
AGAUNTZA,1989-04-06,0.498,5.398,-,5.398,-,-,-,-,-,-,-,-,-,-,-
AGAUNTZA,1989-04-07,0.491,5.199,-,5.199,-,-,-,-,-,-,-,-,-,-,-
AGAUNTZA,1989-04-08,0.539,6.412,-,6.412,-,-,-,-,-,-,-,-,-,-,-
AGAUNTZA,1989-04-09,0.449,4.189,-,4.189,-,-,-,-,-,-,-,-,-,-,-
AGAUNTZA,1989-04-10,0.38,2.79,-,2.79,-,-,-,-,-,-,-,-,-,-,-
AGAUNTZA,1989-04-11,0.325,1.893,-,1.893,-,-,-,-,-,-,-,-,-,-,-
AGAUNTZA,1989-04-12,0.396,3.215,-,3.215,-,-,-,-,-,-,-,-,-,-,-
AGAUNTZA,1989-04-13,0.444,4.109,-,4.109,-,-,-,-,-,-,-,-,-,-,-
AGAUNTZA,1989-04-14,0.517,5.802,-,5.802,-,-,-,-,-,-,-,-,-,-,-
AGAUNTZA,1989-04-15,0.422,3.631,-,3.631,-,-,-,-,-,-,-,-,-,-,-
AGAUNTZA,1989-04-16,0.367,2.569,-,2.569,-,-,-,-,-,-,-,-,-,-,-
AGAUNTZA,1989-04-17,0.47,4.938,-,4.938,-,-,-,-,-,-,-,-,-,-,-
AGAUNTZA,1989-04-18,0.562,7.029,-,7.029,-,-,-,-,-,-,-,-,-,-,-
AGAUNTZA,1989-04-19,0.423,3.658,-,3.658,-,-,-,-,-,-,-,-,-,-,-
AGAUNTZA,1989-04-20,0.358,2.417,-,2.417,-,-,-,-,-,-,-,-,-,-,-
AGAUNTZA,1989-04-21,0.305,1.614,-,1.614,-,-,-,-,-,-,-,-,-,-,-
AGAUNTZA,1989-04-22,0.269,1.177,-,1.177,-,-,-,-,-,-,-,-,-,-,-
AGAUNTZA,1989-04-23,0.253,1.003,-,1.003,-,-,-,-,-,-,-,-,-,-,-
AGAUNTZA,1989-04-24,0.236,0.846,-,0.846,-,-,-,-,-,-,-,-,-,-,-
AGAUNTZA,1989-04-25,0.256,1.098,-,1.098,-,-,-,-,-,-,-,-,-,-,-
AGAUNTZA,1989-04-26,0.356,2.381,-,2.381,-,-,-,-,-,-,-,-,-,-,-
AGAUNTZA,1989-04-27,0.317,1.778,-,1.778,-,-,-,-,-,-,-,-,-,-,-
AGAUNTZA,1989-04-28,0.511,5.768,-,5.768,-,-,-,-,-,-,-,-,-,-,-
AGAUNTZA,1989-04-29,0.407,3.318,-,3.318,-,-,-,-,-,-,-,-,-,-,-
AGAUNTZA,1989-04-30,0.484,5.122,-,5.122,-,-,-,-,-,-,-,-,-,-,-
AGAUNTZA,1989-05-01,0.422,3.627,-,3.627,-,-,-,-,-,-,-,-,-,-,-
AGAUNTZA,1989-05-02,0.347,2.224,-,2.224,-,-,-,-,-,-,-,-,-,-,-
AGAUNTZA,1989-05-03,0.309,1.668,-,1.668,-,-,-,-,-,-,-,-,-,-,-
AGAUNTZA,1989-05-04,0.267,1.158,-,1.158,-,-,-,-,-,-,-,-,-,-,-
AGAUNTZA,1989-05-05,0.24,0.88,-,0.88,-,-,-,-,-,-,-,-,-,-,-
AGAUNTZA,1989-05-06,0.221,0.721,-,0.721,-,-,-,-,-,-,-,-,-,-,-
AGAUNTZA,1989-05-07,0.202,0.574,-,0.574,-,-,-,-,-,-,-,-,-,-,-
AGAUNTZA,1989-05-08,0.187,0.472,-,0.472,-,-,-,-,-,-,-,-,-,-,-
AGAUNTZA,1989-05-09,0.174,0.393,-,0.393,-,-,-,-,-,-,-,-,-,-,-
AGAUNTZA,1989-05-10,0.173,0.389,-,0.389,-,-,-,-,-,-,-,-,-,-,-
AGAUNTZA,1989-05-11,0.16,0.321,-,0.321,-,-,-,-,-,-,-,-,-,-,-
AGAUNTZA,1989-05-12,0.152,0.281,-,0.281,-,-,-,-,-,-,-,-,-,-,-
AGAUNTZA,1989-05-13,0.147,0.259,-,0.259,-,-,-,-,-,-,-,-,-,-,-
AGAUNTZA,1989-05-14,0.141,0.233,-,0.233,-,-,-,-,-,-,-,-,-,-,-
AGAUNTZA,1989-05-15,0.134,0.207,-,0.207,-,-,-,-,-,-,-,-,-,-,-
AGAUNTZA,1989-05-16,0.13,0.189,-,0.189,-,-,-,-,-,-,-,-,-,-,-
AGAUNTZA,1989-05-17,0.138,0.221,-,0.221,-,-,-,-,-,-,-,-,-,-,-
AGAUNTZA,1989-05-18,0.138,0.221,-,0.221,-,-,-,-,-,-,-,-,-,-,-
AGAUNTZA,1989-05-19,0.137,0.215,-,0.215,-,-,-,-,-,-,-,-,-,-,-
AGAUNTZA,1989-05-20,0.137,0.218,-,0.218,-,-,-,-,-,-,-,-,-,-,-
AGAUNTZA,1989-05-21,0.134,0.204,-,0.204,-,-,-,-,-,-,-,-,-,-,-
AGAUNTZA,1989-05-22,0.129,0.186,-,0.186,-,-,-,-,-,-,-,-,-,-,-
AGAUNTZA,1989-05-23,0.128,0.184,-,0.184,-,-,-,-,-,-,-,-,-,-,-
AGAUNTZA,1989-05-24,0.128,0.184,-,0.184,-,-,-,-,-,-,-,-,-,-,-
AGAUNTZA,1989-05-25,0.127,0.181,-,0.181,-,-,-,-,-,-,-,-,-,-,-
AGAUNTZA,1989-05-26,0.119,0.154,-,0.154,-,-,-,-,-,-,-,-,-,-,-
AGAUNTZA,1989-05-27,0.114,0.138,-,0.138,-,-,-,-,-,-,-,-,-,-,-
AGAUNTZA,1989-05-28,0.108,0.12,-,0.12,-,-,-,-,-,-,-,-,-,-,-
AGAUNTZA,1989-05-29,0.103,0.108,-,0.108,-,-,-,-,-,-,-,-,-,-,-
AGAUNTZA,1989-05-30,0.141,0.238,-,0.238,-,-,-,-,-,-,-,-,-,-,-
AGAUNTZA,1989-05-31,0.128,0.183,-,0.183,-,-,-,-,-,-,-,-,-,-,-
AGAUNTZA,1989-06-01,0.128,0.184,-,0.184,-,-,-,-,-,-,-,-,-,-,-
AGAUNTZA,1989-06-02,0.12,0.155,-,0.155,-,-,-,-,-,-,-,-,-,-,-
AGAUNTZA,1989-06-03,0.117,0.147,-,0.147,-,-,-,-,-,-,-,-,-,-,-
AGAUNTZA,1989-06-04,0.114,0.138,-,0.138,-,-,-,-,-,-,-,-,-,-,-
AGAUNTZA,1989-06-05,0.114,0.139,-,0.139,-,-,-,-,-,-,-,-,-,-,-
AGAUNTZA,1989-06-06,0.119,0.152,-,0.152,-,-,-,-,-,-,-,-,-,-,-
AGAUNTZA,1989-06-07,0.12,0.157,-,0.157,-,-,-,-,-,-,-,-,-,-,-
AGAUNTZA,1989-06-08,0.112,0.133,-,0.133,-,-,-,-,-,-,-,-,-,-,-
AGAUNTZA,1989-06-09,0.111,0.13,-,0.13,-,-,-,-,-,-,-,-,-,-,-
AGAUNTZA,1989-06-10,0.134,0.206,-,0.206,-,-,-,-,-,-,-,-,-,-,-
AGAUNTZA,1989-06-11,0.116,0.142,-,0.142,-,-,-,-,-,-,-,-,-,-,-
AGAUNTZA,1989-06-12,0.114,0.137,-,0.137,-,-,-,-,-,-,-,-,-,-,-
AGAUNTZA,1989-06-13,0.109,0.122,-,0.122,-,-,-,-,-,-,-,-,-,-,-
AGAUNTZA,1989-06-14,0.104,0.109,-,0.109,-,-,-,-,-,-,-,-,-,-,-
AGAUNTZA,1989-06-15,0.111,0.129,-,0.129,-,-,-,-,-,-,-,-,-,-,-
AGAUNTZA,1989-06-16,0.117,0.147,-,0.147,-,-,-,-,-,-,-,-,-,-,-
AGAUNTZA,1989-06-17,0.111,0.129,-,0.129,-,-,-,-,-,-,-,-,-,-,-
AGAUNTZA,1989-06-18,0.099,0.097,-,0.097,-,-,-,-,-,-,-,-,-,-,-
AGAUNTZA,1989-06-19,0.095,0.086,-,0.086,-,-,-,-,-,-,-,-,-,-,-
AGAUNTZA,1989-06-20,0.097,0.091,-,0.091,-,-,-,-,-,-,-,-,-,-,-
AGAUNTZA,1989-06-21,0.101,0.102,-,0.102,-,-,-,-,-,-,-,-,-,-,-
AGAUNTZA,1989-06-22,0.1,0.1,-,0.1,-,-,-,-,-,-,-,-,-,-,-
AGAUNTZA,1989-06-23,0.092,0.082,-,0.082,-,-,-,-,-,-,-,-,-,-,-
AGAUNTZA,1989-06-24,0.093,0.084,-,0.084,-,-,-,-,-,-,-,-,-,-,-
AGAUNTZA,1989-06-25,0.1,0.1,-,0.1,-,-,-,-,-,-,-,-,-,-,-
AGAUNTZA,1989-06-26,0.103,0.106,-,0.106,-,-,-,-,-,-,-,-,-,-,-
AGAUNTZA,1989-06-27,0.102,0.105,-,0.105,-,-,-,-,-,-,-,-,-,-,-
AGAUNTZA,1989-06-28,0.106,0.114,-,0.114,-,-,-,-,-,-,-,-,-,-,-
AGAUNTZA,1989-06-29,0.105,0.112,-,0.112,-,-,-,-,-,-,-,-,-,-,-
AGAUNTZA,1989-06-30,0.104,0.109,-,0.109,-,-,-,-,-,-,-,-,-,-,-
AGAUNTZA,1989-07-01,0.1,0.099,-,0.099,-,-,-,-,-,-,-,-,-,-,-
AGAUNTZA,1989-07-02,0.104,0.11,-,0.11,-,-,-,-,-,-,-,-,-,-,-
AGAUNTZA,1989-07-03,0.1,0.1,-,0.1,-,-,-,-,-,-,-,-,-,-,-
AGAUNTZA,1989-07-04,0.091,0.079,-,0.079,-,-,-,-,-,-,-,-,-,-,-
AGAUNTZA,1989-07-05,0.195,0.556,-,0.556,-,-,-,-,-,-,-,-,-,-,-
AGAUNTZA,1989-07-06,0.167,0.361,-,0.361,-,-,-,-,-,-,-,-,-,-,-
AGAUNTZA,1989-07-07,0.15,0.274,-,0.274,-,-,-,-,-,-,-,-,-,-,-
AGAUNTZA,1989-07-08,0.119,0.153,-,0.153,-,-,-,-,-,-,-,-,-,-,-
AGAUNTZA,1989-07-09,0.104,0.11,-,0.11,-,-,-,-,-,-,-,-,-,-,-
AGAUNTZA,1989-07-10,0.099,0.097,-,0.097,-,-,-,-,-,-,-,-,-,-,-
AGAUNTZA,1989-07-11,0.101,0.103,-,0.103,-,-,-,-,-,-,-,-,-,-,-
AGAUNTZA,1989-07-12,0.106,0.115,-,0.115,-,-,-,-,-,-,-,-,-,-,-
AGAUNTZA,1989-07-13,0.104,0.109,-,0.109,-,-,-,-,-,-,-,-,-,-,-
AGAUNTZA,1989-07-14,0.105,0.112,-,0.112,-,-,-,-,-,-,-,-,-,-,-
AGAUNTZA,1989-07-15,0.101,0.103,-,0.103,-,-,-,-,-,-,-,-,-,-,-
AGAUNTZA,1989-07-16,0.099,0.096,-,0.096,-,-,-,-,-,-,-,-,-,-,-
AGAUNTZA,1989-07-17,0.097,0.093,-,0.093,-,-,-,-,-,-,-,-,-,-,-
AGAUNTZA,1989-07-18,0.095,0.089,-,0.089,-,-,-,-,-,-,-,-,-,-,-
AGAUNTZA,1989-07-19,0.098,0.094,-,0.094,-,-,-,-,-,-,-,-,-,-,-
AGAUNTZA,1989-07-20,0.096,0.091,-,0.091,-,-,-,-,-,-,-,-,-,-,-
AGAUNTZA,1989-07-21,0.094,0.084,-,0.084,-,-,-,-,-,-,-,-,-,-,-
AGAUNTZA,1989-07-22,0.097,0.094,-,0.094,-,-,-,-,-,-,-,-,-,-,-
AGAUNTZA,1989-07-23,0.115,0.184,-,0.184,-,-,-,-,-,-,-,-,-,-,-
AGAUNTZA,1989-07-24,0.163,0.351,-,0.351,-,-,-,-,-,-,-,-,-,-,-
AGAUNTZA,1989-07-25,0.111,0.131,-,0.131,-,-,-,-,-,-,-,-,-,-,-
AGAUNTZA,1989-07-26,0.104,0.109,-,0.109,-,-,-,-,-,-,-,-,-,-,-
AGAUNTZA,1989-07-27,0.098,0.094,-,0.094,-,-,-,-,-,-,-,-,-,-,-
AGAUNTZA,1989-07-28,0.098,0.095,-,0.095,-,-,-,-,-,-,-,-,-,-,-
AGAUNTZA,1989-07-29,0.095,0.087,-,0.087,-,-,-,-,-,-,-,-,-,-,-
AGAUNTZA,1989-07-30,0.087,0.071,-,0.071,-,-,-,-,-,-,-,-,-,-,-
AGAUNTZA,1989-07-31,0.085,0.067,-,0.067,-,-,-,-,-,-,-,-,-,-,-
AGAUNTZA,1989-08-01,0.084,0.065,-,0.065,-,-,-,-,-,-,-,-,-,-,-
AGAUNTZA,1989-08-02,0.089,0.075,-,0.075,-,-,-,-,-,-,-,-,-,-,-
AGAUNTZA,1989-08-03,0.088,0.072,-,0.072,-,-,-,-,-,-,-,-,-,-,-
AGAUNTZA,1989-08-04,0.092,0.082,-,0.082,-,-,-,-,-,-,-,-,-,-,-
AGAUNTZA,1989-08-05,0.108,0.125,-,0.125,-,-,-,-,-,-,-,-,-,-,-
AGAUNTZA,1989-08-06,0.118,0.153,-,0.153,-,-,-,-,-,-,-,-,-,-,-
AGAUNTZA,1989-08-07,0.094,0.086,-,0.086,-,-,-,-,-,-,-,-,-,-,-
AGAUNTZA,1989-08-08,0.093,0.083,-,0.083,-,-,-,-,-,-,-,-,-,-,-
AGAUNTZA,1989-08-09,0.107,0.125,-,0.125,-,-,-,-,-,-,-,-,-,-,-
AGAUNTZA,1989-08-10,0.141,0.234,-,0.234,-,-,-,-,-,-,-,-,-,-,-
AGAUNTZA,1989-08-11,0.121,0.159,-,0.159,-,-,-,-,-,-,-,-,-,-,-
AGAUNTZA,1989-08-12,0.109,0.123,-,0.123,-,-,-,-,-,-,-,-,-,-,-
AGAUNTZA,1989-08-13,0.1,0.099,-,0.099,-,-,-,-,-,-,-,-,-,-,-
AGAUNTZA,1989-08-14,0.1,0.099,-,0.099,-,-,-,-,-,-,-,-,-,-,-
AGAUNTZA,1989-08-15,0.095,0.087,-,0.087,-,-,-,-,-,-,-,-,-,-,-
AGAUNTZA,1989-08-16,0.1,0.1,-,0.1,-,-,-,-,-,-,-,-,-,-,-
AGAUNTZA,1989-08-17,0.103,0.106,-,0.106,-,-,-,-,-,-,-,-,-,-,-
AGAUNTZA,1989-08-18,0.101,0.103,-,0.103,-,-,-,-,-,-,-,-,-,-,-
AGAUNTZA,1989-08-19,0.102,0.104,-,0.104,-,-,-,-,-,-,-,-,-,-,-
AGAUNTZA,1989-08-20,0.098,0.094,-,0.094,-,-,-,-,-,-,-,-,-,-,-
AGAUNTZA,1989-08-21,0.095,0.087,-,0.087,-,-,-,-,-,-,-,-,-,-,-
AGAUNTZA,1989-08-22,0.091,0.08,-,0.08,-,-,-,-,-,-,-,-,-,-,-
AGAUNTZA,1989-08-23,0.1,0.1,-,0.1,-,-,-,-,-,-,-,-,-,-,-
AGAUNTZA,1989-08-24,0.094,0.085,-,0.085,-,-,-,-,-,-,-,-,-,-,-
AGAUNTZA,1989-08-25,0.098,0.094,-,0.094,-,-,-,-,-,-,-,-,-,-,-
AGAUNTZA,1989-08-26,0.095,0.087,-,0.087,-,-,-,-,-,-,-,-,-,-,-
AGAUNTZA,1989-08-27,0.094,0.085,-,0.085,-,-,-,-,-,-,-,-,-,-,-
AGAUNTZA,1989-08-28,0.092,0.08,-,0.08,-,-,-,-,-,-,-,-,-,-,-
AGAUNTZA,1989-08-29,0.098,0.095,-,0.095,-,-,-,-,-,-,-,-,-,-,-
AGAUNTZA,1989-08-30,0.098,0.094,-,0.094,-,-,-,-,-,-,-,-,-,-,-
AGAUNTZA,1989-08-31,0.094,0.084,-,0.084,-,-,-,-,-,-,-,-,-,-,-
AGAUNTZA,1989-09-01,0.109,0.127,-,0.127,-,-,-,-,-,-,-,-,-,-,-
AGAUNTZA,1989-09-02,0.116,0.145,-,0.145,-,-,-,-,-,-,-,-,-,-,-
AGAUNTZA,1989-09-03,0.097,0.093,-,0.093,-,-,-,-,-,-,-,-,-,-,-
AGAUNTZA,1989-09-04,0.088,0.072,-,0.072,-,-,-,-,-,-,-,-,-,-,-
AGAUNTZA,1989-09-05,0.082,0.061,-,0.061,-,-,-,-,-,-,-,-,-,-,-
AGAUNTZA,1989-09-06,0.081,0.059,-,0.059,-,-,-,-,-,-,-,-,-,-,-
AGAUNTZA,1989-09-07,0.083,0.063,-,0.063,-,-,-,-,-,-,-,-,-,-,-
AGAUNTZA,1989-09-08,0.082,0.06,-,0.06,-,-,-,-,-,-,-,-,-,-,-
AGAUNTZA,1989-09-09,0.08,0.057,-,0.057,-,-,-,-,-,-,-,-,-,-,-
AGAUNTZA,1989-09-10,0.091,0.082,-,0.082,-,-,-,-,-,-,-,-,-,-,-
AGAUNTZA,1989-09-11,0.113,0.137,-,0.137,-,-,-,-,-,-,-,-,-,-,-
AGAUNTZA,1989-09-12,0.095,0.088,-,0.088,-,-,-,-,-,-,-,-,-,-,-
AGAUNTZA,1989-09-13,0.09,0.076,-,0.076,-,-,-,-,-,-,-,-,-,-,-
AGAUNTZA,1989-09-14,0.082,0.061,-,0.061,-,-,-,-,-,-,-,-,-,-,-
AGAUNTZA,1989-09-15,0.084,0.065,-,0.065,-,-,-,-,-,-,-,-,-,-,-
AGAUNTZA,1989-09-16,0.078,0.054,-,0.054,-,-,-,-,-,-,-,-,-,-,-
AGAUNTZA,1989-09-17,0.076,0.05,-,0.05,-,-,-,-,-,-,-,-,-,-,-
AGAUNTZA,1989-09-18,0.08,0.056,-,0.056,-,-,-,-,-,-,-,-,-,-,-
AGAUNTZA,1989-09-19,0.082,0.06,-,0.06,-,-,-,-,-,-,-,-,-,-,-
AGAUNTZA,1989-09-20,0.101,0.101,-,0.101,-,-,-,-,-,-,-,-,-,-,-
AGAUNTZA,1989-09-21,0.095,0.088,-,0.088,-,-,-,-,-,-,-,-,-,-,-
AGAUNTZA,1989-09-22,0.146,0.306,-,0.306,-,-,-,-,-,-,-,-,-,-,-
AGAUNTZA,1989-09-23,0.179,0.43,-,0.43,-,-,-,-,-,-,-,-,-,-,-
AGAUNTZA,1989-09-24,0.125,0.175,-,0.175,-,-,-,-,-,-,-,-,-,-,-
AGAUNTZA,1989-09-25,0.097,0.093,-,0.093,-,-,-,-,-,-,-,-,-,-,-
AGAUNTZA,1989-09-26,0.085,0.067,-,0.067,-,-,-,-,-,-,-,-,-,-,-
AGAUNTZA,1989-09-27,0.093,0.083,-,0.083,-,-,-,-,-,-,-,-,-,-,-
AGAUNTZA,1989-09-28,0.096,0.091,-,0.091,-,-,-,-,-,-,-,-,-,-,-
AGAUNTZA,1989-09-29,0.101,0.102,-,0.102,-,-,-,-,-,-,-,-,-,-,-
AGAUNTZA,1989-09-30,0.097,0.093,-,0.093,-,-,-,-,-,-,-,-,-,-,-
AIXOLA,1988-10-01,0.07,0.032,-,0.032,-,-,-,-,-,-,-,-,-,-,-
AIXOLA,1988-10-02,0.067,0.03,-,0.03,-,-,-,-,-,-,-,-,-,-,-
AIXOLA,1988-10-03,0.069,0.031,-,0.031,-,-,-,-,-,-,-,-,-,-,-
AIXOLA,1988-10-04,0.07,0.032,-,0.032,-,-,-,-,-,-,-,-,-,-,-
AIXOLA,1988-10-05,0.069,0.031,-,0.031,-,-,-,-,-,-,-,-,-,-,-
AIXOLA,1988-10-06,0.072,0.033,-,0.033,-,-,-,-,-,-,-,-,-,-,-
AIXOLA,1988-10-07,0.075,0.034,-,0.034,-,-,-,-,-,-,-,-,-,-,-
AIXOLA,1988-10-08,0.077,0.035,-,0.035,-,-,-,-,-,-,-,-,-,-,-
AIXOLA,1988-10-09,0.074,0.033,-,0.033,-,-,-,-,-,-,-,-,-,-,-
AIXOLA,1988-10-10,0.079,0.037,-,0.037,-,-,-,-,-,-,-,-,-,-,-
AIXOLA,1988-10-11,0.08,0.037,-,0.037,-,-,-,-,-,-,-,-,-,-,-
AIXOLA,1988-10-12,0.084,0.042,-,0.042,-,-,-,-,-,-,-,-,-,-,-
AIXOLA,1988-10-13,0.085,0.043,-,0.043,-,-,-,-,-,-,-,-,-,-,-
AIXOLA,1988-10-14,0.09,0.051,-,0.051,-,-,-,-,-,-,-,-,-,-,-
AIXOLA,1988-10-15,0.094,0.058,-,0.058,-,-,-,-,-,-,-,-,-,-,-